[[{"header":{"parameterUnit":"m.s-1","parameterCategory":1,"la1":30.2991,"la2":30.254,"lo1":-89.0895,"lo2":-89.0444,"dy":0.0017,"dx":0.0017,"nx":28,"ny":28,"refTime":"2024-06-27T21:00:00:Z","depth":0,"parameterNumber":2,"parameterNumberName":"U-component_of_WINDS"},"data":[0,0,0,0,0,0,0,0,0,0,0,0,0,0,0,0,0,0,0,0,0,0,0,0,0,0,0,0,0,0,0,0,0,0,0,0,0,0,0,0,0,0,0,0,0,0,0,0,0,0,0,0,0,0,0,0,0,0,3.8117,3.8117,0,3.8164,3.8165,3.8165,3.8139,3.8137,3.8136,3.8135,3.818,3.8182,3.8184,0,0,0,0,0,0,0,0,0,0,0,0,0,3.8003,3.8005,3.8117,3.8117,3.8118,3.8164,3.8165,3.8166,3.8139,3.8137,3.8136,3.8134,3.8179,3.8182,3.8185,0,0,0,0,0,0,0,0,0,0,0,0,0,3.8051,3.8006,3.8117,3.811,3.811,3.8164,3.8165,3.8166,3.8139,3.8137,3.8135,3.8134,3.8178,3.8181,3.8185,3.8246,0,0,3.8196,3.8198,0,0,0,0,0,0,0,0,3.8049,3.8055,3.8111,3.8111,3.8111,3.8144,3.8141,3.8193,3.814,3.8128,3.8135,3.8133,3.8169,3.8173,3.8186,3.8249,3.825,3.8196,3.8198,3.82,3.8201,0,0,0,0,0,0,0,3.8045,3.8053,3.8135,3.8112,3.8112,3.8105,3.811,3.8151,3.8159,3.8129,3.8127,3.8133,3.8169,3.8183,3.8187,3.8251,3.8196,3.8199,3.8202,3.8203,3.8369,3.8371,0,0,0,0,0,0,3.8043,3.8051,3.8134,3.8137,3.8074,3.8109,3.8114,3.8135,3.8158,3.816,3.8135,3.8132,3.8178,3.8183,3.8189,3.8262,3.82,3.8203,3.8205,3.8366,3.8369,3.8372,0,0,0,0,0,0,3.804,3.805,3.8132,3.8093,3.8103,3.8113,3.8137,3.8137,3.8151,3.8163,3.8164,3.8148,3.8176,3.8183,3.8233,3.8263,3.8205,3.8208,3.8364,3.8367,3.837,3.8409,0,0,0,0,0,0,3.8037,3.805,3.8072,3.8094,3.8106,3.8176,3.8139,3.8139,3.8158,3.8154,3.8175,3.8177,3.8175,3.8228,3.8237,3.8267,3.8211,3.8361,3.8365,3.8369,3.8405,3.8414,3.8421,0,0,0,0,0,3.8033,3.808,3.8074,3.8084,3.8135,3.8177,3.8184,3.8182,3.816,3.8184,3.8192,3.8176,3.826,3.8233,3.8243,3.8275,3.8359,3.8364,3.8369,3.8402,3.8412,3.8421,0,0,0,0,0,0,3.8059,3.8083,3.8076,3.8131,3.8153,3.8173,3.8201,3.8193,3.8219,3.8214,3.8211,3.8216,3.8267,3.8277,3.8246,3.8337,3.8306,3.8313,3.8328,3.8337,3.8345,3.8339,3.8214,0,0,0,0,0,3.8072,3.8105,3.8124,3.8171,3.8183,3.8191,3.8209,3.8207,3.8228,3.8237,3.8248,3.8269,3.83,3.832,3.8349,3.8409,3.8413,3.8436,3.8444,3.845,3.8455,3.8488,3.8498,3.8388,3.8388,3.8388,0,0,3.8096,3.8114,3.8135,3.8177,3.8193,3.8228,3.8198,3.8235,3.826,3.8242,3.8289,3.83,3.8322,3.8378,3.8402,3.8387,3.8487,3.8457,3.8462,3.8463,3.8494,3.8504,3.8513,3.8391,3.8391,3.839,0,0,3.8159,3.8177,3.8218,3.8237,3.8263,3.8269,3.828,3.8303,3.8309,3.8358,3.8345,3.8376,3.8429,3.8447,3.8462,3.8539,3.8525,3.8549,3.8587,3.8619,3.8628,3.8636,3.8661,3.8671,3.8555,3.8555,3.8555,0,3.8186,3.8238,3.824,3.828,3.8299,3.8288,3.833,3.8348,3.8382,3.8395,3.8379,3.8448,3.8463,3.8522,3.8541,3.8555,3.8566,3.8544,3.8627,3.8635,3.8642,3.8666,3.8676,3.8558,3.8557,3.8557,3.8557,0,3.827,3.8307,3.8337,3.8373,3.8397,3.8437,3.8446,3.847,3.8468,3.8476,3.8526,3.8545,3.8578,3.8594,3.859,3.8653,3.8643,3.8628,3.8595,3.8655,3.8677,3.8687,3.8561,3.856,3.856,3.8559,0,0,3.8342,3.8384,3.8395,3.8412,3.8444,3.8472,3.8514,3.8549,3.8569,3.8595,3.8629,3.8678,3.8664,3.8683,3.8683,3.8711,3.877,3.8692,3.8693,3.8703,3.884,3.8848,3.8859,3.8764,3.8766,3.8767,3.8837,0,3.8405,3.8478,3.8485,3.855,3.8584,3.8578,3.8615,3.8638,3.8649,3.8679,3.8691,3.8724,3.8705,3.8717,3.8745,3.8757,3.8797,3.8753,3.8793,3.8794,3.8783,3.8871,3.888,3.8944,3.8846,3.8847,3.8849,0,3.8486,3.8518,3.8587,3.8617,3.8632,3.8664,3.8698,3.8729,3.8756,3.8762,3.8786,3.8783,3.8826,3.8797,3.8856,3.8826,3.8844,3.8853,3.8856,3.8855,3.8821,3.887,3.8965,3.8973,3.8863,3.8862,3.8861,0,3.853,3.859,3.8639,3.8655,3.8692,3.8715,3.8731,3.8757,3.8779,3.881,3.8824,3.8859,3.8877,3.8904,3.8911,3.889,3.897,3.8941,3.8974,3.8974,3.8986,3.8984,3.9081,3.9005,3.9005,3.9005,3.9005,0,3.8597,3.8639,3.866,3.869,3.8738,3.8747,3.8794,3.8809,3.8833,3.8866,3.8864,3.8895,3.8904,3.8937,3.8943,3.8991,3.9,3.9004,3.9004,3.9002,3.9001,3.901,3.9004,3.9007,3.9007,3.9006,3.9006,0,3.865,3.8667,3.872,3.8753,3.8762,3.8796,3.8824,3.8853,3.8866,3.8908,3.8918,3.8937,3.8976,3.8988,3.9034,3.9038,3.9093,3.9091,3.9084,3.9082,3.9113,3.9109,3.9216,3.923,3.9148,3.9149,3.9149,0,3.8689,3.8722,3.876,3.8783,3.8801,3.8838,3.8862,3.8874,3.8898,3.8935,3.896,3.9,3.9031,3.9093,3.911,3.9146,3.9143,3.9179,3.9148,3.9145,3.914,3.9137,3.9139,3.9182,3.9183,3.9184,3.9184,0,3.8757,3.8765,3.8799,3.8839,3.8868,3.8898,3.8928,3.8947,3.8963,3.8991,3.9032,3.9057,3.9107,3.9145,3.9182,3.9198,3.9194,3.9195,3.9204,3.9199,3.9192,3.9194,3.9095,3.9191,3.919,3.919,3.9189,3.9189,3.8803,3.8832,3.8865,3.8904,3.8929,3.8958,3.8988,3.9007,3.9042,3.9083,3.9089,3.9133,3.9164,3.9214,3.9233,3.9267,3.9256,3.927,3.9272,3.9275,3.9276,3.9192,3.9274,3.9274,3.9274,3.9274,3.9274,0,3.8868,3.889,3.8927,3.897,3.9002,3.9,3.9034,3.906,3.9099,3.9129,3.9162,3.921,3.9249,3.9272,3.9311,3.9334,3.9333,3.9343,3.9339,3.9343,3.9284,3.9271,3.9343,3.9343,3.9343,3.9343,3.9343,3.9343,3.8905,3.8955,3.8968,3.9031,3.9053,3.9098,3.9117,3.9144,3.9168,3.9223,3.9256,3.9272,3.93,3.9341,3.9377,3.9383,3.9395,3.9407,3.9411,3.9354,3.9347,3.934,3.9328,3.941,3.941,3.9466,3.9467,3.9467]},{"header":{"parameterUnit":"m.s-1","parameterCategory":1,"la1":30.2991,"la2":30.254,"lo1":-89.0895,"lo2":-89.0444,"dy":0.0017,"dx":0.0017,"nx":28,"ny":28,"refTime":"2024-06-27T21:00:00:Z","depth":0,"parameterNumber":3,"parameterNumberName":"V-component_of_WINDS"},"data":[0,0,0,0,0,0,0,0,0,0,0,0,0,0,0,0,0,0,0,0,0,0,0,0,0,0,0,0,0,0,0,0,0,0,0,0,0,0,0,0,0,0,0,0,0,0,0,0,0,0,0,0,0,0,0,0,0,0,3.7033,3.7038,0,3.7416,3.742,3.7425,3.7449,3.7445,3.7441,3.7436,3.7838,3.7852,3.7866,0,0,0,0,0,0,0,0,0,0,0,0,0,3.633,3.6343,3.7033,3.7038,3.7043,3.7415,3.7421,3.7426,3.745,3.7445,3.7439,3.7434,3.7833,3.785,3.7868,0,0,0,0,0,0,0,0,0,0,0,0,0,3.6667,3.6347,3.7032,3.7099,3.7109,3.7414,3.7421,3.7427,3.7451,3.7445,3.7438,3.7432,3.7827,3.7848,3.787,3.8137,0,0,3.7938,3.7947,0,0,0,0,0,0,0,0,3.6648,3.6693,3.7085,3.7095,3.7107,3.7378,3.732,3.7666,3.7453,3.7322,3.7436,3.7429,3.7691,3.7723,3.781,3.8156,3.8173,3.794,3.7953,3.7963,3.7969,0,0,0,0,0,0,0,3.6624,3.6676,3.7185,3.709,3.7104,3.7113,3.7153,3.7386,3.7538,3.7333,3.7335,3.738,3.7695,3.7788,3.7819,3.8179,3.7939,3.7959,3.7972,3.7981,3.8763,3.877,0,0,0,0,0,0,3.6587,3.6657,3.7173,3.7196,3.6856,3.7131,3.7176,3.7298,3.7536,3.7566,3.7385,3.7379,3.7754,3.7794,3.7834,3.8162,3.7962,3.7983,3.7996,3.8756,3.8765,3.8773,0,0,0,0,0,0,3.6572,3.6633,3.7157,3.6928,3.6995,3.715,3.7286,3.7309,3.7402,3.7575,3.7603,3.7451,3.775,3.7803,3.8061,3.8176,3.7993,3.8013,3.8747,3.8759,3.8769,3.8821,0,0,0,0,0,0,3.6552,3.6627,3.6729,3.6929,3.7007,3.7376,3.7293,3.7321,3.7439,3.7435,3.7645,3.7674,3.7749,3.8028,3.8083,3.8204,3.803,3.8737,3.8752,3.8765,3.8809,3.8832,3.8852,0,0,0,0,0,3.6526,3.673,3.6734,3.6796,3.7137,3.7383,3.7427,3.7507,3.7448,3.7552,3.7663,3.7667,3.8154,3.8054,3.8116,3.8245,3.8731,3.8748,3.8764,3.88,3.8828,3.8851,0,0,0,0,0,0,3.6543,3.6758,3.6764,3.7038,3.7191,3.7386,3.752,3.7535,3.771,3.77,3.7795,3.7842,3.8098,3.8197,3.8082,3.8516,3.8436,3.8466,3.8442,3.847,3.8491,3.8462,3.8049,0,0,0,0,0,3.6577,3.6756,3.6936,3.7161,3.7237,3.7365,3.7475,3.7523,3.7687,3.7753,3.7883,3.8045,3.8234,3.8357,3.8541,3.8823,3.887,3.8942,3.8963,3.898,3.9006,3.9163,3.9198,3.8829,3.8829,3.8828,0,0,3.6653,3.6792,3.69,3.7167,3.7292,3.7477,3.742,3.7619,3.7759,3.7785,3.8036,3.8137,3.8323,3.8594,3.872,3.8685,3.9118,3.9002,3.9014,3.9031,3.9184,3.9219,3.925,3.884,3.8838,3.8836,0,0,3.6885,3.7007,3.7208,3.7333,3.752,3.7604,3.7652,3.7845,3.7912,3.8164,3.8187,3.8355,3.868,3.8811,3.8921,3.9199,3.921,3.9257,3.9369,3.9521,3.955,3.9576,3.9677,3.9712,3.9281,3.9282,3.9282,0,3.6955,3.7233,3.731,3.7509,3.7626,3.7653,3.7859,3.7977,3.8217,3.8298,3.8254,3.866,3.8788,3.909,3.9157,3.9245,3.9304,3.9235,3.9539,3.9566,3.9592,3.9689,3.9727,3.9286,3.9286,3.9285,3.9285,0,3.7311,3.7504,3.7644,3.787,3.8003,3.8204,3.8313,3.8439,3.8475,3.8563,3.8821,3.8974,3.9189,3.9264,3.9302,3.9572,3.9544,3.9519,3.9441,3.963,3.9723,3.9761,3.9293,3.9291,3.929,3.9289,0,0,3.7568,3.7831,3.7881,3.7984,3.8192,3.8344,3.8546,3.8753,3.886,3.9024,3.9197,3.9469,3.9446,3.957,3.9623,3.9756,3.9968,3.9715,3.972,3.9757,4.0276,4.0295,4.0337,3.9975,3.9982,3.9988,4.0261,0,3.7823,3.8181,3.8255,3.8565,3.8745,3.8773,3.8949,3.9097,3.9185,3.9352,3.945,3.9641,3.9596,3.9671,3.9803,3.9914,4.0074,3.9895,4.014,4.0148,4.0094,4.0385,4.0407,4.0657,4.0297,4.0304,4.0308,0,3.8171,3.8339,3.8666,3.8849,3.8927,3.9084,3.9279,3.9438,3.9606,3.9661,3.9798,3.9836,4.0049,3.9958,4.0255,4.0131,4.0236,4.0305,4.0317,4.0345,4.0241,4.0423,4.0739,4.0777,4.0366,4.0361,4.0357,0,3.8326,3.8634,3.887,3.8957,3.9176,3.9286,3.9383,3.9544,3.9664,3.9835,3.9914,4.0109,4.0216,4.0367,4.0457,4.0383,4.0747,4.0664,4.0801,4.0799,4.0879,4.0873,4.1217,4.0942,4.0942,4.0941,4.094,0,3.8605,3.8805,3.8942,3.9088,3.9312,3.9395,3.9616,3.9713,3.9856,4.0022,4.0059,4.0215,4.0323,4.0495,4.0567,4.0802,4.085,4.0902,4.0919,4.09,4.0894,4.0972,4.0958,4.0951,4.0949,4.0947,4.0945,0,3.8817,3.8917,3.9176,3.9361,3.9412,3.957,3.9729,3.9872,3.9959,4.0169,4.0223,4.0361,4.0564,4.0668,4.0923,4.0972,4.1237,4.1243,4.1179,4.1186,4.1318,4.1305,4.1727,4.1787,4.1469,4.1472,4.1474,0,3.899,3.9144,3.9344,3.9456,3.9554,3.9735,3.9856,3.9944,4.0069,4.0271,4.039,4.0594,4.0763,4.1087,4.1212,4.1407,4.1419,4.1553,4.1449,4.1425,4.1423,4.1414,4.143,4.1573,4.1576,4.1578,4.158,0,3.9286,3.9327,3.9499,3.9688,3.983,3.9984,4.0136,4.0226,4.0339,4.0478,4.0684,4.0815,4.1073,4.1276,4.148,4.1582,4.1602,4.1611,4.1654,4.1637,4.1594,4.162,4.1231,4.1602,4.16,4.1598,4.1597,4.1596,3.9486,3.9624,3.9785,3.9975,4.0097,4.0238,4.0381,4.0484,4.0657,4.0872,4.0913,4.1133,4.1298,4.1572,4.1681,4.1855,4.1827,4.1888,4.1904,4.1918,4.1925,4.1564,4.1893,4.1892,4.1892,4.1891,4.1891,0,3.9785,3.9889,4.0063,4.0272,4.0422,4.0422,4.059,4.0716,4.0907,4.1057,4.1221,4.1459,4.1656,4.1794,4.1995,4.2108,4.2122,4.2158,4.2152,4.2175,4.1938,4.1882,4.2143,4.2143,4.2143,4.2143,4.2143,4.2143,3.9959,4.0192,4.0251,4.0546,4.065,4.0863,4.0958,4.1089,4.1209,4.1472,4.1634,4.1721,4.1868,4.2079,4.226,4.2296,4.2369,4.2406,4.2442,4.2219,4.2192,4.2167,4.2115,4.242,4.2421,4.2665,4.2667,4.2669]}]]